TIME,DELAY(SENSOR),PRES,T(CTD),SAL,OXYGEN,RAWTEMP,T(OPTODE),TCPHASE,FLUOR,BETA(BETA700),BETA(BETA412),BETA(BETA440),CDOM,C(CSC),ED(ED411.90),ED(ED443.80),ED(ED489.40),ED(ED554.70),LU(LU412.20),LU(LU443.80),LU(LU489.40),LU(LU555.00),COMP,TILTX,TILTX(TILTY),CHECK
1356105759,5808,496.9299926757812500,17.2222003936767580,36.4070014953613300,223.9777069091797000,181.1869049072265600,17.2155399322509770,31.6336708068847660,51,97,96,79,68,12693,2146959853,2147515803,2147270473,2147463753,2147086290,2146949348,2147656512,2147125933,522,-2,8,7154
1356105874,5806,486.5799865722656000,17.3034992218017580,36.4231986999511700,225.2279052734375000,178.2431945800781200,17.3043193817138670,31.5293407440185550,50,97,96,80,67,12694,2146959844,2147515245,2147267008,2147464585,2147085129,2146956873,2147656356,2147132525,2897,-1,8,33591
1356106003,5804,475.1199951171875000,17.4302997589111330,36.4478988647460940,226.8092956542968800,174.3003997802734400,17.4232597351074220,31.3951797485351560,50,97,96,79,68,12693,2146962560,2147516982,2147267428,2147460598,2147085824,2146948745,2147657718,2147128548,2071,-1,8,46903
1356106130,5804,464.0799865722656000,17.5167007446289060,36.4642982482910160,228.4564056396484400,171.2655944824218800,17.5148200988769530,31.2712993621826170,50,98,97,80,67,12694,2146958500,2147516726,2147270509,2147460790,2147086436,2146958454,2147656347,2147126125,1051,-1,8,31261
1356106259,5806,452.8699951171875000,17.6098003387451170,36.4822006225585940,229.6889038085937500,168.0196075439453000,17.6127700805664060,31.1656494140625000,50,97,96,80,67,12692,2146959177,2147515428,2147271241,2147462189,2147087168,2146954678,2147658066,2147129974,3301,-2,8,7204
1356106386,5806,441.7999877929687500,17.7047996520996100,36.5005989074707000,231.1116943359375000,165.0923004150390600,17.7011203765869140,31.0557308197021500,50,97,97,80,67,12690,2146962230,2147513837,2147269275,2147458020,2147083574,2146955538,2147651044,2147127762,2260,-1,8,35212
1356106501,5806,431.7600097656250000,17.7844009399414060,36.5139999389648440,232.1024017333984400,162.5247955322265600,17.7786102294921880,30.9723091125488280,50,98,96,80,66,12691,2146955986,2147516681,2147270253,2147461915,2147082925,2146952685,2147651776,2147130267,2364,-2,8,15155
1356106631,5806,420.5700073242187500,17.8509006500244140,36.5261993408203100,232.8076019287109400,160.1546936035156200,17.8501605987548830,30.9058799743652340,50,100,96,80,67,12693,2146959954,2147516214,2147267328,2147460050,2147080795,2146955401,2147656091,2147127872,1468,-1,8,42524
1356106758,5808,409.6000061035156000,17.9251995086669920,36.5395011901855500,233.4765014648437500,157.7841949462890600,17.9217395782470700,30.8416309356689450,50,98,96,79,67,12692,2146956909,2147515099,2147268132,2147458514,2147088384,2146954157,2147651072,2147128411,441,-2,8,16227
1356106887,5806,398.4500122070312500,17.9771003723144530,36.5471992492675800,233.7799072265625000,156.1004943847656200,17.9725799560546880,30.8040904998779300,50,99,95,81,67,12693,2146957339,2147514459,2147265124,2147457764,2147078436,2146950555,2147654262,2147126838,3490,-1,8,46920
1356107014,5806,387.5400085449219000,18.0114002227783200,36.5519981384277340,233.7485961914062500,154.9792022705078000,18.0064392089843750,30.7907295227050780,50,100,95,79,67,12692,2146956160,2147512393,2147268717,2147459757,2147075556,2146954870,2147652544,2147125357,2457,-2,8,20043
1356107141,5809,376.3999938964844000,18.0750999450683600,36.5598983764648440,233.0641021728515600,152.9123992919922000,18.0688591003417970,30.7964401245117200,51,98,96,81,68,12693,2146959378,2147515510,2147267867,2147453988,2147082121,2146956406,2147651035,2147127725,1781,-2,8,3930
1356107271,5807,364.9400024414062500,18.1152000427246100,36.5638008117675800,232.4593048095703000,151.3663940429687500,18.1155605316162100,30.8052005767822270,50,97,96,79,67,12694,2146960246,2147516288,2147266496,2147455030,2147079186,2146959570,2147654116,2147128804,796,-2,8,1793
1356107398,5806,353.7500000000000000,18.1700000762939450,36.5703010559082000,231.9790039062500000,149.7671966552734400,18.1638698577880860,30.8073005676269530,50,99,96,79,66,12691,2146956827,2147515300,2147268516,2147452681,2147077120,2146956708,2147650578,2147128850,3042,-1,8,62658
1356107527,5805,342.3800048828125000,18.2539997100830080,36.5779991149902340,231.1190948486328000,147.0283050537109400,18.2466201782226560,30.8127403259277340,51,97,96,80,67,12691,2146956644,2147515117,2147266230,2147453650,2147079680,2146962249,2147650084,2147127597,2317,-2,8,10987
1356107654,5806,331.2300109863281000,18.3134002685546880,36.5829010009765600,229.6999969482422000,144.9391021728515600,18.3097591400146500,30.8543491363525400,50,96,95,80,68,12691,2146958070,2147516726,2147267456,2147454802,2147077686,2146958153,2147651510,2147127990,1580,-2,8,36232
1356107781,5805,320.2900085449219000,18.4283008575439450,36.5914001464843750,227.1194000244140600,141.1707000732422000,18.4236507415771500,30.9322490692138670,51,98,95,79,67,12691,2146957403,2147515419,2147267346,2147453577,2147081179,2146958628,2147648612,2147128740,1617,-2,8,38492
1356107911,5807,309.5899963378906000,18.4703998565673830,36.5962982177734400,226.5446014404297000,139.7667999267578000,18.4660892486572270,30.9423999786376950,50,96,94,81,67,12692,2146957851,2147513280,2147265728,2147455003,2147081472,2146957622,2147654857,2147128969,1098,-2,8,65033
1356108050,5806,298.6600036621094000,18.5725994110107420,36.6022987365722660,224.7057037353515600,136.3565063476562500,18.5692100524902340,30.9891490936279300,50,98,96,80,68,12697,2146957650,2147514157,2147266322,2147453284,2147077814,2146956854,2147655798,2147129526,182,-1,8,28481
1356108211,5806,285.2500000000000000,18.6630992889404300,36.6001014709472660,224.3764953613281200,133.2272949218750000,18.6638507843017580,30.9642696380615230,50,98,95,80,67,12700,2146958454,2147514203,2147263286,2147454226,2147083126,2146959780,2147654272,2147125577,3559,-2,8,17689
1356108326,5806,274.2999877929687500,18.7663002014160160,36.5970993041992200,226.8079071044922000,129.6546936035156200,18.7719192504882800,30.7941608428955080,50,97,95,80,68,12702,2146957074,2147514285,2147266898,2147452178,2147078811,2146964269,2147659858,2147129682,2759,-1,8,11155
1356108443,5803,263.4200134277344000,18.8649005889892580,36.5979995727539060,227.8542022705078000,126.3820037841796900,18.8709602355957030,30.6984291076660160,50,98,95,80,67,12700,2146960850,2147514733,2147266971,2147450075,2147079012,2146962496,2147666395,2147126857,3219,-1,8,23481
1356108570,5809,251.7899932861328000,18.9496002197265620,36.5901985168457000,230.7005004882812500,123.7901992797851600,18.9493999481201170,30.5239601135253900,50,96,96,79,68,12699,2146955200,2147513737,2147267757,2147451419,2147080594,2146966857,2147667611,2147129444,1873,-2,8,26213
1356108685,5806,240.9700012207031200,19.0785999298095700,36.5831985473632800,234.6864929199218800,119.5753021240234400,19.0770206451416000,30.2756900787353500,50,95,96,80,66,12699,2146957696,2147513298,2147266669,2147452781,2147082514,2146973037,2147674395,2147131218,810,-2,8,2898
1356108802,5805,229.9199981689453000,19.1846008300781250,36.5766983032226560,238.8459014892578000,115.8675003051757800,19.1893196105957030,30.0303497314453120,50,96,96,80,65,12699,2146956086,2147515721,2147266157,2147453083,2147085138,2146971821,2147676123,2147128457,3064,-1,9,38139
1356108917,5808,218.9299926757812500,19.2761993408203120,36.5732002258300800,243.1753997802734400,113.1554031372070300,19.2714900970459000,29.7944602966308600,50,97,95,80,66,12699,2146957705,2147514157,2147265755,2147452809,2147085120,2146972269,2147672438,2147129417,2681,-2,8,61081
1356109032,5807,208.0200042724609400,19.3388004302978500,36.5740013122558600,244.1880035400390600,110.9673004150390600,19.3377990722656250,29.7198905944824220,50,97,95,80,65,12697,2146958994,2147516077,2147266121,2147447497,2147085549,2146980105,2147686546,2147130962,2175,-2,8,55729
1356109156,5803,197.2899932861328000,19.3866996765136720,36.5769996643066400,244.0260925292968800,109.4853973388671900,19.3827095031738280,29.7080307006835940,50,100,96,81,66,12697,2146955867,2147517083,2147264182,2147450029,2147087506,2146980342,2147679058,2147131446,1009,-2,9,52275
1356109211,5807,192.8399963378906200,19.3948001861572270,36.5768013000488300,244.3811035156250000,109.1035003662109400,19.3942909240722660,29.6869697570800780,50,98,96,81,66,12696,2146959158,2147514432,2147265005,2147448868,2147087972,2146982765,2147684544,2147131245,788,-1,8,55331
1356109266,5808,188.5000000000000000,19.4269008636474600,36.5798988342285160,243.8968963623047000,108.0754013061523400,19.4254608154296880,29.6956596374511720,50,99,95,80,66,12696,2146956571,2147515373,2147269686,2147450432,2147089197,2147023296,2147765604,2147137572,545,-1,9,64078
1356109321,5806,184.2700042724609400,19.4561996459960940,36.5824012756347660,243.5162048339843800,107.2650985717773400,19.4500198364257800,29.7025604248046880,51,99,96,80,66,12696,2146958226,2147518107,2147266230,2147445696,2147088969,2147008740,2147733860,2147132736,503,-1,8,64481
1356109376,5803,180.1799926757812500,19.4727001190185550,36.5838012695312500,243.2563018798828000,106.6782989501953100,19.4678192138671880,29.7067203521728500,51,100,96,80,66,12695,2146959405,2147520000,2147263835,2147447433,2147090880,2146997257,2147708105,2147130422,533,-2,8,28977
1356109455,5806,174.8800048828125000,19.5105991363525400,36.5881996154785160,243.0559997558593800,105.3632965087890600,19.5076904296875000,29.6987495422363280,51,99,97,82,66,12691,2146954276,2147517110,2147265060,2147445458,2147091812,2147014820,2147730697,2147132955,414,-1,8,40863
1356109522,5807,171.1300048828125000,19.5597000122070300,36.5909996032714840,242.3681030273437500,103.8445968627929700,19.5537490844726560,29.7106895446777340,52,101,96,82,67,12694,2146958436,2147520594,2147272146,2147448000,2147101229,2147080283,2147869723,2147140370,891,-1,8,34772
1356109589,5806,167.7200012207031200,19.6009998321533200,36.5962982177734400,241.5447998046875000,101.8203964233398400,19.6151504516601560,29.7222099304199220,52,98,96,80,66,12692,2146958326,2147517595,2147270180,2147447872,2147102025,2147083346,2147863862,2147141540,1123,-1,9,11065
1356109680,5802,163.6600036621093800,19.7765998840332030,36.6105003356933600,240.4528961181640600,96.4174880981445300,19.7791004180908200,29.7023506164550780,55,103,96,81,66,12689,2146955382,2147516288,2147271058,2147447817,2147098395,2147063177,2147831616,2147139867,1587,-2,9,50464
1356109786,5804,159.7500000000000000,19.9465007781982420,36.6250000000000000,239.3605957031250000,90.9060897827148400,19.9464397430419920,29.6817607879638670,57,99,97,81,68,12687,2146958326,2147519451,2147275364,2147444781,2147108726,2147112301,2147911488,2147145874,1231,-2,8,37813
1356109889,5806,156.0800018310547000,20.1268997192382800,36.6366004943847660,240.2453002929687500,85.6896286010742200,20.1049194335937500,29.5732707977294920,61,102,97,81,66,12682,2146957010,2147517787,2147272630,2147445129,2147106861,2147122038,2147937600,2147150171,181,-1,8,54495
1356110004,5803,151.8899993896484400,20.2073993682861330,36.6416015625000000,240.5856018066406200,82.6857986450195300,20.1962299346923830,29.5191593170166000,63,104,95,80,66,12682,2146958774,2147521600,2147272896,2147446656,2147110317,2147085083,2147854153,2147141787,3396,-2,9,9840
1356110092,5808,147.4100036621093800,20.2933998107910160,36.6530990600585940,239.9537963867187500,79.0847930908203100,20.3057308197021500,29.5016899108886720,62,102,98,81,67,12677,2146960640,2147519661,2147274084,2147445412,2147115044,2147130240,2147915693,2147145197,3525,-2,9,17662
1356110159,5807,143.2700042724609400,20.4582996368408200,36.6538009643554700,240.4284057617187500,74.0795898437500000,20.4580097198486330,29.4157009124755860,67,106,98,81,67,12674,2146962148,2147522843,2147278610,2147444955,2147132288,2147191213,2148034066,2147153718,636,-1,8,39132
1356110226,5806,138.7899932861328000,20.6070003509521500,36.6636009216308600,241.1508026123047000,69.4338531494140600,20.5994491577148440,29.3230094909667970,69,110,97,82,67,12666,2146960941,2147523026,2147278875,2147441280,2147143899,2147228626,2148087835,2147160649,933,-1,9,57900
1356110281,5806,135.1600036621093800,20.7021999359130860,36.6693000793457000,241.4156951904297000,66.3876190185546900,20.6922302246093750,29.2720603942871100,74,108,98,82,67,12662,2146962496,2147524352,2147283684,2147443401,2147160274,2147281088,2148159725,2147166308,1312,-2,9,13653
1356110348,5806,131.0700073242187500,20.8624992370605470,36.6846008300781250,239.7465057373047000,60.9259796142578100,20.8586807250976560,29.2784996032714840,74,107,98,82,66,12652,2146961398,2147521993,2147281618,2147443547,2147168585,2147281929,2148134546,2147162880,1527,-2,9,41413
1356110424,5804,128.0000000000000000,20.9405002593994140,36.6915016174316400,235.8352966308593800,58.4427986145019500,20.9344005584716800,29.4280109405517580,67,107,98,82,68,12664,2146962185,2147528320,2147291803,2147442185,2147196480,2147393417,2148316196,2147177179,1752,-2,9,45855
1356110776,5806,123.9000015258789000,21.1298999786376950,36.6884994506835940,233.8334045410156200,52.1894607543945300,21.1252002716064450,29.4419803619384770,74,113,99,83,67,12656,2146961837,2147524525,2147274916,2147440649,2147157961,2147187254,2147938038,2147150930,3002,-2,9,34506
1356110903,5807,120.2200012207031200,21.3978996276855470,36.7047996520996100,234.3643951416015600,43.7905693054199200,21.3817501068115230,29.3095207214355470,76,114,99,83,67,12648,2146964260,2147526043,2147280347,2147440960,2147194761,2147291611,2148066660,2147162221,3423,-2,9,65056
1356111054,5803,115.6800003051757800,21.6207008361816400,36.7086982727050800,231.4261016845703000,36.4472503662109400,21.6063098907470700,29.3547992706298830,76,112,101,85,66,12642,2146969984,2147539300,2147312320,2147437449,2147353965,2147762294,2148795190,2147215286,3030,-2,9,37678
1356111145,5802,111.5999984741211000,21.8729991912841800,36.6893997192382800,231.2106018066406200,28.6014709472656250,21.8465309143066400,29.2649898529052730,81,118,100,83,65,12635,2146975670,2147551588,2147324361,2147439734,2147462144,2147998546,2149109924,2147240082,184,-2,9,51091
1356111260,5805,108.5100021362304700,22.1996002197265620,36.4598999023437500,235.9736022949218800,19.2022800445556640,22.1347293853759770,28.9226093292236330,80,119,101,87,65,12609,2146972178,2147545197,2147314477,2147437833,2147440036,2147887378,2148897837,2147223625,220,-1,9,30689
1356111687,5805,104.0500030517578100,22.2147998809814450,36.4417991638183600,250.8809967041015600,16.6305904388427730,22.2136592864990230,28.2261505126953120,78,130,105,90,62,12571,2146977874,2147558052,2147331958,2147435355,2147640228,2148281691,2149399232,2147265115,1127,-2,9,8268
1356111802,5804,99.7300033569336000,22.2187995910644530,36.4355010986328100,252.1784973144531200,16.5725708007812500,22.2154407501220700,28.1698608398437500,76,131,104,89,61,12566,2146975021,2147548114,2147307721,2147434486,2147525741,2147857636,2148701613,2147214774,834,-1,9,5119
1356111857,5805,97.5999984741211000,22.2187995910644530,36.4347991943359400,252.4459991455078000,16.5674495697021500,22.2155990600585940,28.1584892272949220,78,131,104,88,61,12567,2146997348,2147600100,2147400896,2147438235,2148087872,2149162816,2150562989,2147355684,863,-1,9,61224
1356111912,5806,95.5199966430664000,22.2185001373291000,36.4347991943359400,252.6148071289062500,16.5529899597167970,22.2160396575927730,28.1509799957275400,78,131,103,90,62,12568,2146987968,2147561179,2147329307,2147436187,2147751232,2148275382,2149217060,2147254701,980,-1,9,43212
1356111991,5807,91.9100036621093800,22.2198009490966800,36.4334983825683600,253.0453948974609400,16.5339107513427730,22.2166309356689450,28.1323394775390620,77,131,105,90,62,12560,2146986258,2147560868,2147327652,2147432237,2147823945,2148326125,2149225865,2147260050,1095,-1,9,8355
1356112046,5804,88.4400024414062500,22.2194995880126950,36.4334983825683600,252.9907989501953000,16.5575199127197270,22.2159004211425780,28.1350307464599600,76,133,105,88,61,12566,2146993142,2147571437,2147344420,2147433490,2148004790,2148637924,2149581760,2147292571,1200,-1,9,23420
1356112101,5808,84.7799987792968800,22.2176990509033200,36.4341011047363300,253.2158966064453000,16.5993194580078120,22.2146205902099600,28.1259498596191400,77,133,105,88,61,12566,2147010989,2147603821,2147394578,2147438674,2148470089,2149514505,2150705472,2147382326,1124,-2,9,60127
1356112156,5806,81.3099975585937500,22.2145996093750000,36.4339981079101560,253.3834991455078000,16.6189804077148440,22.2140197753906250,28.1191291809082030,78,131,105,87,61,12566,2147063936,2147697545,2147538358,2147444288,2149718336,2151888466,2153735168,2147641069,1202,-1,9,49296
1356112211,5803,77.6399993896484400,22.2166004180908200,36.4333992004394500,253.3656005859375000,16.6205596923828120,22.2139701843261720,28.1199893951416000,77,133,105,89,60,12565,2147078180,2147712795,2147554980,2147445888,2150045101,2152321005,2154134829,2147682221,1331,-2,9,59413
1356112266,5805,73.9199981689453100,22.2152996063232420,36.4328002929687500,253.3567962646484400,16.6786804199218750,22.2121791839599600,28.1211204528808600,77,131,104,88,62,12565,2147101933,2147745042,2147590272,2147449792,2150567881,2153096722,2154957403,2147768585,1400,-1,9,54291
1356112341,5807,68.7600021362304700,22.2124996185302730,36.4327011108398440,253.5482940673828000,16.7248096466064450,22.2107696533203120,28.1134605407714840,78,130,105,89,61,12557,2147154240,2147814537,2147679963,2147456109,2151846528,2155104493,2157145764,2148008274,1582,-1,9,50853
1356112396,5806,65.1299972534179700,22.2119007110595700,36.4323997497558600,253.7557067871093800,16.7584400177001950,22.2097301483154300,28.1050395965576170,78,133,105,88,61,12557,2147207881,2147889755,2147774674,2147463158,2153184758,2157079725,2159339602,2148263296,1603,-2,9,15440
1356112452,5807,61.0999984741210940,22.2103004455566400,36.4324989318847660,253.8392028808593800,16.7189102172851560,22.2109508514404300,28.1010799407959000,77,131,104,88,61,12561,2147265828,2147965531,2147860864,2147471177,2154482011,2158863963,2161037339,2148512877,1705,-1,9,17062
1356112507,5808,56.8400001525878900,22.2098999023437500,36.4323997497558600,253.7646942138672000,16.7966003417968750,22.2085609436035160,28.1051597595214840,79,132,105,89,61,12560,2147355602,2148084086,2148004964,2147484342,2156769106,2162403062,2164933888,2148979529,1957,-2,8,32866
1356112649,5807,46.3400001525878900,22.2084007263183600,36.4315986633300800,254.0964965820312500,16.8499107360839840,22.2069301605224600,28.0917205810546880,79,133,105,89,61,12562,2147623524,2148408475,2148388608,2147533046,2163612141,2171810660,2174580224,2150502473,2576,-1,8,58871
1356112707,5806,41.7599983215332000,22.2073993682861330,36.4319992065429700,254.0847015380859400,16.8267898559570300,22.2076396942138670,28.0920505523681640,81,130,104,89,62,12556,2147722230,2148510720,2148490962,2147556900,2166311506,2174863478,2177275355,2151255945,1947,-2,9,41971
1356112740,5805,39.4900016784668000,22.2061004638671880,36.4324989318847660,254.1083068847656200,16.8442993164062500,22.2070999145507800,28.0912895202636720,78,135,105,88,60,12560,2147509458,2148173979,2148027858,2147526555,2160879826,2165301878,2165593197,2149842816,2095,-2,8,36244
1356112773,5805,37.4099998474121100,22.2066001892089840,36.4319000244140600,254.1573944091797000,16.8233509063720700,22.2077407836914060,28.0887794494628900,77,129,105,89,61,12558,2147580196,2148272786,2148143762,2147543286,2162702912,2167857280,2168206244,2150297078,2350,-2,9,8109
1356112806,5806,35.2799987792968750,22.2063007354736330,36.4320983886718750,254.3018035888672000,16.8029899597167970,22.2083702087402340,28.0824794769287100,79,133,106,89,61,12560,2147671497,2148366546,2148245595,2147567661,2164869613,2170505636,2170676013,2150893238,2427,-1,9,19172
1356112839,5804,33.3699989318847660,22.2057991027832030,36.4320983886718750,254.1802062988281200,16.7914905548095700,22.2087192535400400,28.0875701904296880,84,129,103,88,60,12561,2148111460,2148909494,2148920329,2147665014,2175977554,2186094838,2186946002,2154045540,2549,-4,10,41969
1356112872,5809,31.4899997711181640,22.2054004669189450,36.4320983886718750,254.2194976806640600,16.7039604187011720,22.2114105224609380,28.0847396850585940,80,130,108,89,62,12559,2148168457,2148971602,2148991981,2147686116,2176286875,2186498395,2187471862,2153911634,2777,0,8,6161
1356112905,5804,29.4899997711181640,22.2050991058349600,36.4323005676269500,254.3368988037109400,16.7839107513427730,22.2089500427246100,28.0806407928466800,78,129,105,88,64,12560,2147713874,2148337325,2148155803,2147599780,2166112393,2169644946,2167931995,2150867099,2977,-4,9,13478
1356112938,5803,27.6000003814697270,22.2054004669189450,36.4317016601562500,254.3099975585937500,16.8054504394531250,22.2082901000976560,28.0822792053222660,78,129,106,90,60,12558,2147751360,2148360246,2148155757,2147605668,2166788333,2169926464,2167812955,2151021449,2900,-2,10,6021
1356112971,5806,25.6100006103515620,22.2042999267578120,36.4323005676269500,254.3486022949218800,16.8429203033447270,22.2071399688720700,28.0809593200683600,85,131,106,88,62,12564,2148281764,2149000393,2148923200,2147733860,2180334994,2188696429,2187415872,2155346962,2615,-3,7,35414
